STARLINK-3890, 52455

Orbit data source: Space-Track

STARLINK-3890, 52455 is a payload satellite owned by SpaceX/Seattle (US) in LEO that was launched on Fri, 06 May 2022 UTC via an FALCON 9 launch vehicle from the Air Force Eastern Test Range (AFETR). Payload-class satellites include a variety of spacecraft equipped with specific instruments for various scientific and technological missions. These include communications satellites like Starlink; space stations such as the ISS; scientific satellites like the Hubble; Earth observation satellites from companies like Planet Labs, Umbra, and HawkEye 360; GPS; miniature CubeSats for education and research; and military/defense satellites.

Loading next visibility...
Identifier
52455, 2022-049E
Orbit
LEO
Country
Flag of USUS
Related business
Manufacturer
SpaceX/Seattle
Mission
Operational Commercial Communications
Bus & Motor
STARLINK, Unknown motor
Mass
297 kg wet, ~220 kg dry
Launch date (UTC)
2022-05-06 (4 years ago)
Launch vehicle
FALCON 9
Launch site
Air Force Eastern Test Range (AFETR)
Object type
Payload
Rocket body
Debris
Shape & HBR
Box + 1 Pan, 10.1 m
Radar Cross Section
13.562 m², Large (>1 m²)

Expand to show TLE details & history
Last TLE update: 19 hours ago

TLE from 19 hours ago
0 STARLINK-3890
1 52455U 22049E   25346.59617174  .00015104  00000-0  96712-3 0  9997
2 52455  53.2172 100.0970 0001699  80.7609 279.3575 15.08760581198967
Epoch: 2025-12-12T14:18Z
TLE epoch observation values (Epoch: 2025-12-12T14:18:29.238Z)
Latitude
-0.00003°
Longitude
163.93962°
Altitude
540.693 km
Speed
7.593 km/s
True Right ascension
06h 40m 23s
True Declination
0° 00' 00"
Sunlit
Object was in full shadow at epoch
Visualization orbit readout
Latitude
Unknown
Longitude
Unknown
Altitude
Unknown
Speed
Unknown
Apparent Right ascension
Unknown
Apparent Declination
Unknown
Sunlit
N/A
Visualization observer readout
Local Sidereal Time
07:26:11
Azimuth
Unknown
Elevation
Unknown
Doppler factor
Unknown
Orbital elements
Apogee altitude
541.407 km
Perigee altitude
539.056 km
Semi-major axis
6,918.368 km
Eccentricity
0.00017
Inclination
53.2172°
RAAN
100.097°
Arg. of periapsis
80.7609°
True anomaly
279.33829°
Mean anomaly
279.3575°
Eccentric anomaly
279.34789°
Mean motion
3.7717 °/min
Orbital period
95.45 mins
BSTAR
0.00096712
Loading maneuver chart data...
Computing Atmospheric mass density...
Loading historical data...
Loading historical data...
Loading historical data...
Loading historical data...
Loading historical data...
Loading historical data...
Loading historical data...

Documentation

Showing up to 5 results
|